Location: Derby
(52.9213°N, 1.4761°W)
Time: 17:33:07
(UTC+01:00)

Tiros 1 - Pass Details

Date: 19 May 2025
Orbit: 620 x 651 km, 48.4° (Epoch: 13 June)

Event Time Altitude Azimuth Distance (km) Brightness Sun altitude
Rises 21:34:47 0° 262° (W) 2,906 11.1 -4.4°
Reaches altitude 10° 21:37:08 10° 257° (WSW) 2,003 10.2 -4.7°
Maximum altitude 21:41:34 49° 183° (S) 821 7.5 -5.2°
Drops below altitude 10° 21:46:03 10° 109° (ESE) 2,022 9.1 -5.7°
Enters shadow 21:47:31 - 106° (ESE) 2,576 9.7 -5.8°
Sets 21:48:26 0° 104° (ESE) 2,936 - -5.9°
